SCD 2                   
1 25504U 98060A   19257.41195602  .00000230  00000-0  14202-4 0  9999
2 25504  24.9950 146.8771 0017224   6.5561 330.2588 14.44075233103220
PEGASUS R/B             
1 25506U 98060B   19257.49636973  .00000228  00000-0  12451-4 0  9991
2 25506  24.9984   3.9376 0022963 242.8734 200.6975 14.46138682104935